Content
SEND FEEDBACK

Daily
Averages
Monthly
Summary
United States of America

WILMINGTON, NORTH CAROLINA


Home > North America > United States > North Carolina
Elevation: 72 feet     Latitude: 34 16N     Longitude: 077 54W

WEATHER
 
SELECT A DAY
Number of Records: 211,656;   Date Range: 1/1/95 - 9/29/14
 
SHARE

PRINT THIS DATA

[ ← Previous Day ]
WEATHER ALMANAC - OCTOBER 25, 2013
[ Next Day → ]
[ °C ]   °F
Weather ElementAverageHighLow
Temperature50.7 °F60.1 °F (1:53 pm)39 °F (11:53 pm)
Dewpoint34.9 °F44.1 °F (1:53 am)28.9 °F (4:53 pm)
Humidity57.7 %86 % (1:53 am)32 % (3:53 pm)
Barometer30.27 in30.36 in (11:53 pm)30.16 in (1:53 am)
Wind Speed8 mph15 mph (2:53 pm)
Wind Gust20.7 mph (1:53 pm)
Weather ElementAverage
Visibility10 mi
Wind DirectionESE (113.5 °)

Weather ElementTotal
Precipitation---
Heating Degree Days15.5 (Base 65)
Averaged from 23 records on October 25, 2013
WEATHER CONDITIONS BREAKOUT
WIND DIRECTION BREAKOUT
WEATHER BY HOUR - OCTOBER 25, 2013
[ °C ]   °F
Local TimeTemperatureDewpointHumidityBarometerVisibilityWind DirectionWind SpeedGust SpeedPrecipitationEventsConditions
1:53 AM48.0 °F44.1 °F86 %30.16 in10.0 miCalmOvercast
2:53 AM48.9 °F43.0 °F80 %30.17 in10.0 miNorth (10°)6.9 mphOvercast
3:53 AM48.9 °F39.9 °F71 %30.17 in10.0 miNNE (30°)10.4 mphOvercast
4:53 AM48.9 °F37.0 °F64 %30.18 in10.0 miNNE (30°)10.4 mphOvercast
5:53 AM48.9 °F35.1 °F59 %30.20 in10.0 miNNE (30°)13.8 mphOvercast
6:53 AM48.0 °F36.0 °F63 %30.22 in10.0 miNNE (20°)11.5 mphOvercast
7:53 AM48.0 °F35.1 °F61 %30.25 in10.0 miNorth (10°)9.2 mph18.4 mphScattered Clouds
8:53 AM50.0 °F34.0 °F54 %30.27 in10.0 miNNE (20°)11.5 mphClear
9:53 AM53.1 °F34.0 °F48 %30.29 in10.0 miNorth (10°)11.5 mph19.6 mphOvercast
10:53 AM52.0 °F33.1 °F49 %30.29 in10.0 miNorth (10°)11.5 mphMostly Cloudy
11:53 AM55.9 °F33.1 °F42 %30.28 in10.0 miNorth (360°)13.8 mphClear
12:53 PM57.9 °F33.1 °F39 %30.28 in10.0 miNorth (10°)10.4 mphClear
1:53 PM60.1 °F33.1 °F36 %30.26 in10.0 miNNW (340°)9.2 mph20.7 mphClear
2:53 PM60.1 °F30.9 °F33 %30.26 in10.0 miNNW (340°)15.0 mphClear
3:53 PM60.1 °F30.0 °F32 %30.26 in10.0 miNorth (360°)15.0 mphClear
4:53 PM59.0 °F28.9 °F32 %30.27 in10.0 miNNW (330°)10.4 mphClear
5:53 PM55.9 °F30.0 °F37 %30.29 in10.0 miNorth (350°)6.9 mphClear
6:53 PM51.1 °F32.0 °F48 %30.30 in10.0 miNorth (350°)5.8 mphClear
7:53 PM46.9 °F36.0 °F66 %30.32 in10.0 miCalmClear
8:53 PM43.0 °F37.0 °F80 %30.33 in10.0 miCalmClear
9:53 PM42.1 °F36.0 °F79 %30.34 in10.0 miCalmClear
10:53 PM41.0 °F36.0 °F82 %30.35 in10.0 miCalmClear
11:53 PM39.0 °F35.1 °F86 %30.36 in10.0 miCalmClear
Hourly data recorded from KILM, located miles away from Wilmington, North Carolina







STORIES FROM OUR PARTNERS